Weather History for Durant, OK

Change the Weather History Date:

Thursday, November 24, 2011

  Actual Average (KADM) Record (KADM)
Temperature  
Mean Temperature 46 °F -  
Max Temperature 51 °F 59 °F 80 °F (2010)
Min Temperature 42 °F 40 °F 24 °F (2003)
Degree Days  
Heating Degree Days 18    
Moisture  
Dew Point 46 °F    
Average Humidity 97    
Maximum Humidity 100    
Minimum Humidity 87    
Precipitation  
Precipitation 0.00 in - - ()
Sea Level Pressure  
Sea Level Pressure 30.27 in    
Wind  
Wind Speed 7 mph (SE)    
Max Wind Speed 16 mph    
Max Gust Speed 20 mph    
Visibility 4 miles    
Events Fog    
Averages and records for this station are not official NWS values.
T = Trace of Precipitation, MM = Missing Value Source: NWS Daily Summary

Daily Weather History Graph

Daily Weather History Graph

Search for Another Location

Airport:

Trip Planner

Search our weather history database for the weather conditions in past years. The results will help you decide how hot, cold, wet, or windy it might be!

Date:

Astronomy

Nov. 24, 2011 Rise Set
Actual Time 7:06 AM CST 5:18 PM CST
Civil Twilight 6:39 AM CST 5:45 PM CST
Nautical Twilight 6:08 AM CST 6:15 PM CST
Astronomical Twilight 5:38 AM CST 6:45 PM CST
Moon 6:24 AM CST (11/24) 4:51 PM CST (11/24)
Length of Visible Light 11h 05m
Length of Day
10h 11m
Waning Crescent, 0% of the Moon is Illuminated
Nov 24
Waning Crescent
Nov 25
New
Dec 2
First Quarter
Dec 10
Full
Dec 17
Last Quarter

Hourly Weather History & Observations

Time (CST) Temp. Windchill Dew Point Humidity Pressure Visibility Wind Dir Wind Speed Gust Speed Precip Events Conditions
12:15 AM 44.6 °F 42.2 °F 44.6 °F 100% 30.27 in 10.0 mi ESE 4.6 mph - N/A   Clear
12:35 AM 44.6 °F 42.2 °F 44.6 °F 100% 30.27 in 10.0 mi SE 4.6 mph - N/A   Clear
12:55 AM 44.6 °F 42.2 °F 44.6 °F 100% 30.27 in 10.0 mi ESE 4.6 mph - N/A   Clear
1:15 AM 44.6 °F 42.2 °F 44.6 °F 100% 30.27 in 7.0 mi East 4.6 mph - N/A   Clear
1:35 AM 42.8 °F 40.1 °F 42.8 °F 100% 30.27 in 5.0 mi East 4.6 mph - N/A   Clear
1:55 AM 42.8 °F 39.3 °F 42.8 °F 100% 30.27 in 4.0 mi East 5.8 mph - N/A   Clear
2:15 AM 44.6 °F 41.4 °F 44.6 °F 100% 30.27 in 3.0 mi ESE 5.8 mph - N/A   Clear
2:35 AM 44.6 °F 41.4 °F 44.6 °F 100% 30.27 in 2.0 mi ESE 5.8 mph - N/A   Mostly Cloudy
3:15 AM 44.6 °F 40.7 °F 44.6 °F 100% 30.27 in 0.2 mi SE 6.9 mph - N/A Fog Fog
3:35 AM 44.6 °F 40.2 °F 44.6 °F 100% 30.27 in 0.2 mi ESE 8.1 mph - N/A Fog Fog
4:15 AM 44.6 °F 40.2 °F 44.6 °F 100% 30.28 in 0.2 mi SE 8.1 mph - N/A Fog Fog
4:35 AM 44.6 °F 40.2 °F 44.6 °F 100% 30.28 in 0.2 mi SE 8.1 mph - N/A Fog Fog
4:55 AM 44.6 °F 39.7 °F 44.6 °F 100% 30.28 in 0.2 mi SE 9.2 mph - N/A Fog Fog
5:15 AM 44.6 °F 40.2 °F 44.6 °F 100% 30.28 in 0.2 mi SE 8.1 mph - N/A Fog Fog
5:55 AM 44.6 °F 40.2 °F 44.6 °F 100% 30.27 in 0.2 mi SE 8.1 mph - N/A Fog Fog
6:15 AM 44.6 °F 40.2 °F 44.6 °F 100% 30.28 in 0.2 mi SE 8.1 mph - N/A Fog Fog
6:35 AM 44.6 °F 40.2 °F 44.6 °F 100% 30.29 in 0.2 mi ESE 8.1 mph - N/A Fog Fog
6:55 AM 44.6 °F 40.2 °F 44.6 °F 100% 30.29 in 0.2 mi ESE 8.1 mph - N/A Fog Fog
7:15 AM 44.6 °F 40.7 °F 44.6 °F 100% 30.29 in 0.2 mi SE 6.9 mph - N/A Fog Fog
7:35 AM 44.6 °F 39.7 °F 44.6 °F 100% 30.30 in 0.2 mi SE 9.2 mph - N/A Fog Fog
7:55 AM 44.6 °F 39.7 °F 44.6 °F 100% 30.30 in 0.2 mi SE 9.2 mph - N/A Fog Fog
8:15 AM 44.6 °F 40.7 °F 44.6 °F 100% 30.32 in 0.2 mi SE 6.9 mph - N/A Fog Fog
8:35 AM 44.6 °F 40.2 °F 44.6 °F 100% 30.32 in 0.2 mi SE 8.1 mph - N/A Fog Fog
8:55 AM 44.6 °F 39.7 °F 44.6 °F 100% 30.33 in 0.2 mi SSE 9.2 mph - N/A Fog Fog
9:15 AM 44.6 °F 40.2 °F 44.6 °F 100% 30.33 in 0.2 mi South 8.1 mph - N/A Fog Fog
9:35 AM 44.6 °F 41.4 °F 44.6 °F 100% 30.34 in 0.2 mi SSE 5.8 mph - N/A Fog Fog
9:55 AM 44.6 °F 40.7 °F 44.6 °F 100% 30.34 in 0.2 mi SE 6.9 mph - N/A Fog Fog
10:15 AM 44.6 °F 40.7 °F 44.6 °F 100% 30.34 in 0.2 mi SSE 6.9 mph - N/A Fog Fog
10:35 AM 44.6 °F 41.4 °F 44.6 °F 100% 30.34 in 0.5 mi SSE 5.8 mph - N/A Fog Fog
10:55 AM 44.6 °F 40.2 °F 44.6 °F 100% 30.34 in 0.8 mi SSE 8.1 mph - N/A   Overcast
11:15 AM 44.6 °F 40.7 °F 44.6 °F 100% 30.33 in 0.8 mi SE 6.9 mph - N/A   Overcast
11:35 AM 44.6 °F 40.2 °F 44.6 °F 100% 30.33 in 1.0 mi SSE 8.1 mph - N/A   Overcast
11:55 AM 46.4 °F 42.4 °F 46.4 °F 100% 30.32 in 2.0 mi South 8.1 mph - N/A   Overcast
12:15 PM 46.4 °F 41.9 °F 46.4 °F 100% 30.30 in 3.0 mi SE 9.2 mph - N/A   Overcast
12:35 PM 46.4 °F 42.4 °F 46.4 °F 100% 30.29 in 4.0 mi SSE 8.1 mph - N/A   Overcast
12:55 PM 46.4 °F 41.5 °F 46.4 °F 100% 30.27 in 4.0 mi SSE 10.4 mph - N/A   Overcast
1:15 PM 48.2 °F - 48.2 °F 100% 30.26 in 5.0 mi SSE 9.2 mph - N/A   Overcast
2:15 PM 50.0 °F - 50.0 °F 100% 30.24 in 5.0 mi SSE 10.4 mph - N/A   Overcast
2:35 PM 50.0 °F - 48.2 °F 94% 30.23 in 5.0 mi SSE 10.4 mph - N/A   Overcast
2:55 PM 51.8 °F - 50.0 °F 94% 30.23 in 5.0 mi SSE 8.1 mph - N/A   Overcast
3:15 PM 51.8 °F - 48.2 °F 88% 30.23 in 5.0 mi SSE 9.2 mph - N/A   Overcast
3:35 PM 51.8 °F - 48.2 °F 88% 30.22 in 7.0 mi SSE 9.2 mph - N/A   Overcast
3:55 PM 51.8 °F - 48.2 °F 88% 30.22 in 7.0 mi SSE 9.2 mph - N/A   Overcast
4:15 PM 51.8 °F - 48.2 °F 88% 30.21 in 7.0 mi SE 10.4 mph - N/A   Overcast
4:35 PM 51.8 °F - 48.2 °F 88% 30.21 in 7.0 mi SE 10.4 mph - N/A   Overcast
4:55 PM 51.8 °F - 48.2 °F 88% 30.20 in 7.0 mi SSE 10.4 mph - N/A   Overcast
5:15 PM 50.0 °F - 48.2 °F 94% 30.20 in 7.0 mi SSE 11.5 mph 17.3 mph N/A   Overcast
5:35 PM 50.0 °F - 48.2 °F 94% 30.20 in 7.0 mi SSE 10.4 mph - N/A   Overcast
5:55 PM 50.0 °F - 48.2 °F 94% 30.20 in 7.0 mi SSE 11.5 mph - N/A   Overcast
6:15 PM 50.0 °F - 48.2 °F 94% 30.21 in 7.0 mi SSE 8.1 mph - N/A   Overcast
6:35 PM 50.0 °F - 48.2 °F 94% 30.21 in 7.0 mi SE 10.4 mph - N/A   Overcast
7:35 PM 50.0 °F - 48.2 °F 94% 30.21 in 5.0 mi SSE 11.5 mph - N/A   Overcast
7:55 PM 50.0 °F - 46.4 °F 87% 30.20 in 7.0 mi SSE 11.5 mph - N/A   Overcast
8:15 PM 50.0 °F - 46.4 °F 87% 30.20 in 7.0 mi SSE 16.1 mph 19.6 mph N/A   Overcast
8:35 PM 50.0 °F - 46.4 °F 87% 30.20 in 7.0 mi SSE 13.8 mph - N/A   Overcast
8:55 PM 50.0 °F - 46.4 °F 87% 30.19 in 7.0 mi SSE 13.8 mph 19.6 mph N/A   Overcast
9:15 PM 50.0 °F - 48.2 °F 94% 30.19 in 7.0 mi SSE 12.7 mph 17.3 mph N/A   Overcast
9:35 PM 50.0 °F - 48.2 °F 94% 30.18 in 7.0 mi SSE 11.5 mph - N/A   Overcast
9:55 PM 50.0 °F - 48.2 °F 94% 30.18 in 7.0 mi SSE 11.5 mph - N/A   Overcast
10:15 PM 50.0 °F - 46.4 °F 87% 30.19 in 10.0 mi SSE 16.1 mph 21.9 mph N/A   Overcast
10:35 PM 50.0 °F - 46.4 °F 87% 30.18 in 10.0 mi SSE 18.4 mph - N/A   Overcast
11:15 PM 50.0 °F - 46.4 °F 87% 30.17 in 10.0 mi SSE 15.0 mph - N/A   Overcast
11:55 PM 50.0 °F - 46.4 °F 87% 30.16 in 10.0 mi SSE 15.0 mph - N/A   Overcast